When you browse on this site, cookies collect data to enhance your experience and personalize the content and advertising you see.
Visit our Privacy Policy to learn more. By continuing to use the site, you agree to this use of cookies and data.
  • In United Kingdom
  • List of Countries
  • For 7 days
  • Water Temperature
  • Satellite Maps
  • Weather Map
  • Weather Widgets
  • user-avatar
    Login

    Hourly Weather Wiktoria

    Today, 22 January, Tuesday

    Time Temperature Precipitation Wind Pressure Humidity
    00:00 +26°C° 0 mm 4 mps 748 mmHg 58%
    01:00 +25°C° 0 mm 4 mps 748 mmHg 62%
    02:00 +25°C° 0 mm 3 mps 747 mmHg 63%
    03:00 +24°C° 0 mm 3 mps 747 mmHg 63%
    04:00 +24°C° 0 mm 2 mps 747 mmHg 61%
    05:00 +25°C° 0 mm 2 mps 747 mmHg 58%
    06:00 +26°C° 0 mm 3 mps 747 mmHg 54%
    07:00 +27°C° 0 mm 3 mps 748 mmHg 50%
    08:00 +30°C° 0 mm 2 mps 748 mmHg 42%
    09:00 +34°C° 0 mm 2 mps 748 mmHg 34%
    10:00 +37°C° 0 mm 2 mps 748 mmHg 26%
    11:00 +39°C° 0 mm 2 mps 747 mmHg 23%
    12:00 +40°C° 0 mm 3 mps 747 mmHg 19%
    13:00 +43°C° 0 mm 3 mps 746 mmHg 15%
    14:00 +43°C° 0 mm 3 mps 746 mmHg 14%
    15:00 +43°C° 0 mm 3 mps 745 mmHg 14%
    16:00 +43°C° 0 mm 3 mps 745 mmHg 16%
    17:00 +42°C° 0 mm 3 mps 745 mmHg 17%
    18:00 +40°C° 0 mm 3 mps 745 mmHg 19%
    19:00 +39°C° 0 mm 2 mps 745 mmHg 20%
    20:00 +36°C° 0 mm 3 mps 746 mmHg 26%
    21:00 +34°C° 0 mm 4 mps 746 mmHg 32%
    22:00 +30°C° 0 mm 5 mps 746 mmHg 38%
    23:00 +29°C° 0 mm 5 mps 746 mmHg 40%

    Tomorrow, 23 January, Wednesday

    Time Temperature Precipitation Wind Pressure Humidity
    00:00 +28°C° 0 mm 5 mps 747 mmHg 42%
    01:00 +27°C° 0 mm 5 mps 747 mmHg 44%
    02:00 +27°C° 0 mm 4 mps 747 mmHg 45%
    03:00 +26°C° 0 mm 4 mps 747 mmHg 46%
    04:00 +25°C° 0 mm 4 mps 747 mmHg 46%
    05:00 +25°C° 0 mm 4 mps 747 mmHg 46%
    06:00 +25°C° 0 mm 5 mps 747 mmHg 45%
    07:00 +25°C° 0 mm 5 mps 747 mmHg 44%
    08:00 +28°C° 0 mm 5 mps 747 mmHg 38%
    09:00 +32°C° 0 mm 5 mps 747 mmHg 32%
    10:00 +34°C° 0 mm 5 mps 747 mmHg 27%
    11:00 +37°C° 0 mm 5 mps 747 mmHg 22%
    12:00 +40°C° 0 mm 5 mps 747 mmHg 18%
    13:00 +42°C° 0 mm 5 mps 746 mmHg 13%
    14:00 +42°C° 0 mm 6 mps 746 mmHg 14%
    15:00 +43°C° 0 mm 7 mps 746 mmHg 16%
    16:00 +43°C° 0 mm 8 mps 745 mmHg 17%
    17:00 +39°C° 0 mm 7 mps 746 mmHg 22%
    18:00 +36°C° 0 mm 7 mps 746 mmHg 27%
    19:00 +34°C° 0 mm 7 mps 746 mmHg 32%
    20:00 +32°C° 0 mm 7 mps 747 mmHg 40%
    21:00 +28°C° 0 mm 7 mps 747 mmHg 48%
    22:00 +26°C° 0 mm 6 mps 748 mmHg 56%
    23:00 +25°C° 0 mm 5 mps 748 mmHg 58%

    Day after tomorrow, 24 January, Thursday

    Time Temperature Precipitation Wind Pressure Humidity
    00:00 +25°C° 0 mm 5 mps 748 mmHg 60%
    01:00 +23°C° 0 mm 4 mps 748 mmHg 62%
    02:00 +24°C° 0 mm 3 mps 748 mmHg 63%
    03:00 +24°C° 0 mm 3 mps 748 mmHg 63%
    04:00 +22°C° 0 mm 3 mps 748 mmHg 64%
    05:00 +24°C° 0 mm 3 mps 748 mmHg 61%
    06:00 +25°C° 0 mm 3 mps 748 mmHg 59%
    07:00 +26°C° 0 mm 3 mps 748 mmHg 56%
    08:00 +29°C° 0 mm 4 mps 748 mmHg 50%
    09:00 +32°C° 0 mm 4 mps 748 mmHg 44%
    10:00 +35°C° 0 mm 5 mps 748 mmHg 38%
    11:00 +36°C° 0 mm 4 mps 747 mmHg 34%
    12:00 +38°C° 0 mm 4 mps 747 mmHg 30%
    13:00 +41°C° 0 mm 4 mps 746 mmHg 26%
    14:00 +42°C° 0 mm 4 mps 746 mmHg 23%
    15:00 +42°C° 0 mm 3 mps 745 mmHg 21%
    16:00 +43°C° 0 mm 3 mps 744 mmHg 18%
    17:00 +42°C° 0 mm 3 mps 744 mmHg 20%
    18:00 +40°C° 0 mm 2 mps 744 mmHg 21%
    19:00 +39°C° 0 mm 2 mps 744 mmHg 22%
    20:00 +37°C° 0 mm 2 mps 745 mmHg 24%
    21:00 +36°C° 0 mm 2 mps 745 mmHg 25%
    22:00 +34°C° 0 mm 3 mps 745 mmHg 27%
    23:00 +34°C° 0 mm 3 mps 745 mmHg 28%

    25 January, Friday

    Time Temperature Precipitation Wind Pressure Humidity
    00:00 +33°C° 0 mm 3 mps 745 mmHg 28%
    01:00 +33°C° 0 mm 4 mps 745 mmHg 29%
    02:00 +32°C° 0 mm 5 mps 745 mmHg 34%
    03:00 +32°C° 0 mm 6 mps 744 mmHg 39%
    04:00 +30°C° 0 mm 7 mps 744 mmHg 43%
    05:00 +32°C° 0 mm 7 mps 744 mmHg 44%
    06:00 +32°C° 0 mm 7 mps 745 mmHg 46%
    07:00 +32°C° 0 mm 7 mps 745 mmHg 47%
    08:00 +34°C° 0 mm 7 mps 745 mmHg 42%
    09:00 +38°C° 0 mm 7 mps 745 mmHg 36%
    10:00 +40°C° 0 mm 6 mps 745 mmHg 31%
    11:00 +44°C° 0 mm 6 mps 744 mmHg 26%
    12:00 +46°C° 0 mm 6 mps 743 mmHg 22%
    13:00 +48°C° 0 mm 6 mps 743 mmHg 17%
    14:00 +49°C° 0 mm 6 mps 742 mmHg 16%
    15:00 +49°C° 0 mm 6 mps 741 mmHg 14%
    16:00 +49°C° 0 mm 5 mps 741 mmHg 13%
    17:00 +47°C° 0.2 mm 5 mps 741 mmHg 16%
    18:00 +44°C° 0.2 mm 4 mps 741 mmHg 18%
    19:00 +42°C° 0.2 mm 3 mps 741 mmHg 21%
    20:00 +38°C° 0.2 mm 4 mps 742 mmHg 30%
    21:00 +35°C° 0.2 mm 5 mps 743 mmHg 40%
    22:00 +30°C° 0.2 mm 6 mps 744 mmHg 49%
    23:00 +30°C° 0.1 mm 5 mps 743 mmHg 51%

    26 January, Saturday

    Time Temperature Precipitation Wind Pressure Humidity
    00:00 +29°C° 0.1 mm 5 mps 743 mmHg 54%
    01:00 +28°C° 0.1 mm 4 mps 743 mmHg 56%
    02:00 +27°C° 0 mm 4 mps 743 mmHg 59%
    03:00 +25°C° 0 mm 4 mps 743 mmHg 63%
    04:00 +23°C° 0 mm 4 mps 743 mmHg 67%
    05:00 +23°C° 0 mm 4 mps 744 mmHg 66%
    06:00 +25°C° 0 mm 4 mps 744 mmHg 65%
    07:00 +25°C° 0 mm 3 mps 744 mmHg 65%
    08:00 +27°C° 0 mm 3 mps 744 mmHg 56%
    09:00 +30°C° 0 mm 3 mps 744 mmHg 46%
    10:00 +33°C° 0 mm 3 mps 744 mmHg 37%
    11:00 +35°C° 0 mm 3 mps 743 mmHg 32%
    12:00 +36°C° 0 mm 4 mps 743 mmHg 26%
    13:00 +38°C° 0 mm 4 mps 743 mmHg 21%
    14:00 +40°C° 0 mm 4 mps 742 mmHg 20%
    15:00 +40°C° 0 mm 5 mps 742 mmHg 18%
    16:00 +41°C° 0 mm 5 mps 741 mmHg 17%
    17:00 +40°C° 0 mm 5 mps 741 mmHg 16%
    18:00 +39°C° 0 mm 5 mps 741 mmHg 16%
    19:00 +36°C° 0 mm 6 mps 741 mmHg 16%
    20:00 +34°C° 0 mm 5 mps 742 mmHg 20%
    21:00 +32°C° 0 mm 4 mps 742 mmHg 24%
    22:00 +28°C° 0 mm 4 mps 743 mmHg 28%
    23:00 +26°C° 0 mm 4 mps 743 mmHg 41%

    27 January, Sunday

    Time Temperature Precipitation Wind Pressure Humidity
    00:00 +23°C° 0 mm 4 mps 743 mmHg 54%
    01:00 +21°C° 0 mm 4 mps 744 mmHg 66%
    02:00 +20°C° 0.1 mm 4 mps 744 mmHg 69%
    03:00 +20°C° 0.1 mm 4 mps 744 mmHg 71%
    04:00 +19°C° 0.1 mm 4 mps 744 mmHg 74%
    05:00 +19°C° 0 mm 4 mps 744 mmHg 73%
    06:00 +19°C° 0 mm 4 mps 745 mmHg 72%
    07:00 +19°C° 0 mm 4 mps 745 mmHg 71%
    08:00 +21°C° 0 mm 4 mps 745 mmHg 61%
    09:00 +22°C° 0 mm 5 mps 745 mmHg 51%
    10:00 +25°C° 0 mm 5 mps 746 mmHg 41%
    11:00 +27°C° 0 mm 5 mps 745 mmHg 32%
    12:00 +30°C° 0 mm 5 mps 745 mmHg 24%
    13:00 +33°C° 0 mm 4 mps 745 mmHg 16%
    14:00 +34°C° 0 mm 5 mps 744 mmHg 15%
    15:00 +35°C° 0 mm 5 mps 744 mmHg 14%
    16:00 +35°C° 0 mm 5 mps 744 mmHg 13%
    17:00 +34°C° 0 mm 4 mps 744 mmHg 16%
    18:00 +33°C° 0 mm 4 mps 745 mmHg 19%
    19:00 +31°C° 0 mm 3 mps 745 mmHg 22%
    20:00 +28°C° 0 mm 4 mps 746 mmHg 31%
    21:00 +26°C° 0 mm 4 mps 746 mmHg 40%
    22:00 +22°C° 0 mm 5 mps 747 mmHg 49%
    23:00 +21°C° 0 mm 5 mps 747 mmHg 53%
    Show more